Location: Tierra del Sol
(32.6128°N, 116.3319°W)
Time: 17:28:06
(UTC-08:00)

Vanguard 1 - Visible Passes

Search period start: 18 January 2018 00:00
Search period end: 28 January 2018 00:00
Orbit: 649 x 3834 km, 34.3° (Epoch: 17 January)

Date Brightness Start Highest point End Pass type
(mag) Time Alt. Az. Time Alt. Az. Time Alt. Az.
18 Jan 13.3 01:05:52 24° E 01:05:52 24° E 01:11:41 10° E visible
18 Jan 11.9 03:18:35 84° WNW 03:19:25 89° NNE 03:41:17 10° ESE visible
18 Jan 12.8 05:31:18 19° W 05:45:12 62° SSW 06:08:14 10° SE visible
19 Jan 13.1 01:25:43 30° E 01:25:43 30° E 01:33:44 10° E visible
19 Jan 11.9 03:38:26 71° W 03:40:58 85° SSW 04:03:11 10° ESE visible
19 Jan 13.0 05:51:09 13° W 06:06:38 52° SSW 06:28:54 10° SE visible
20 Jan 12.8 01:45:34 38° E 01:45:34 38° E 01:55:50 10° E visible
20 Jan 11.9 03:58:17 58° W 04:02:29 77° SSW 04:24:50 10° ESE visible
20 Jan 13.2 06:11:48 10° W 06:28:00 43° SW 06:49:09 10° SSE visible
21 Jan 12.6 02:05:28 46° E 02:05:28 46° E 02:17:56 10° E visible
21 Jan 12.1 04:18:11 47° W 04:23:57 68° SSW 04:46:13 10° SE visible
22 Jan 12.3 02:25:22 56° ESE 02:25:22 56° ESE 02:39:57 10° ESE visible
22 Jan 12.3 04:38:05 37° W 04:45:24 58° SSW 05:07:16 10° SE visible
23 Jan 13.8 00:32:36 11° E 00:32:36 11° E 00:33:00 10° E visible
23 Jan 12.1 02:45:19 65° ESE 02:45:19 65° ESE 03:01:49 10° ESE visible
23 Jan 12.5 04:58:02 28° W 05:06:50 49° SSW 05:27:56 10° SE visible
24 Jan 13.6 00:52:33 16° E 00:52:33 16° E 00:54:58 10° E visible
24 Jan 12.0 03:05:16 69° SSE 03:05:16 69° SSE 03:23:28 10° ESE visible
24 Jan 12.8 05:18:00 21° W 05:28:15 40° SSW 05:48:09 10° SSE visible
25 Jan 13.4 01:12:32 21° E 01:12:32 21° E 01:16:56 10° E visible
25 Jan 11.9 03:25:16 64° SSW 03:25:16 64° SSW 03:44:50 10° SE visible
25 Jan 13.0 05:38:00 14° W 05:49:41 31° SW 06:07:50 10° SSE visible
26 Jan 13.1 01:32:33 26° ESE 01:32:33 26° ESE 01:38:51 10° ESE visible
26 Jan 12.0 03:45:16 53° SW 03:46:22 54° SSW 04:05:51 10° SE visible
26 Jan 13.2 05:59:09 10° W 06:11:09 24° SW 06:26:45 10° S visible
27 Jan 12.9 01:52:35 31° ESE 01:52:35 31° ESE 02:00:37 10° ESE visible
27 Jan 12.2 04:05:18 42° SW 04:07:47 44° SSW 04:26:27 10° SE visible
27 Jan 11.4 19:00:50 10° S 19:02:04 13° SSE 19:02:04 13° SSE visible
